Location: Newark
(44.3681°N, 100.3364°W)
Time: 12:57:05
(UTC+00:00)

Vanguard 2 - Visible Passes

Search period start: 28 February 2020 00:00
Search period end: 09 March 2020 00:00
Orbit: 552 x 2939 km, 32.9° (Epoch: 27 February)

Date Brightness Start Highest point End Pass type
(mag) Time Alt. Az. Time Alt. Az. Time Alt. Az.
28 Feb 10.8 08:23:42 22° ESE 08:23:42 22° ESE 08:28:22 10° E visible
28 Feb 9.7 10:25:06 44° SSW 10:26:37 46° S 10:40:48 10° ESE visible
28 Feb 10.7 12:26:30 11° W 12:36:55 34° SSW 12:51:13 10° SE visible
29 Feb 10.6 08:40:34 26° ESE 08:40:34 26° ESE 08:46:21 10° ESE visible
29 Feb 9.8 10:41:58 39° SW 10:44:24 43° S 10:58:21 10° SE visible
29 Feb 10.8 12:44:27 10° WSW 12:54:38 29° SSW 13:07:47 10° SSE visible
01 Mar 10.4 08:57:28 29° SE 08:57:28 29° SE 09:04:13 10° ESE visible
01 Mar 9.9 10:58:53 33° SW 11:02:12 38° SSW 11:15:42 10° SE visible
02 Mar 10.3 09:14:25 32° SE 09:14:25 32° SE 09:21:58 10° ESE visible
02 Mar 10.0 11:15:50 27° SW 11:19:59 33° SSW 11:32:48 10° SE visible
03 Mar 10.1 09:31:25 33° SSE 09:31:25 33° SSE 09:39:37 10° ESE visible
03 Mar 10.2 11:32:51 21° SW 11:37:46 28° SSW 11:49:32 10° SSE visible
04 Mar 10.1 09:48:28 32° SSE 09:48:28 32° SSE 09:57:03 10° SE visible
04 Mar 10.4 11:49:54 15° WSW 11:55:32 22° SSW 12:05:47 10° SSE visible
05 Mar 10.1 10:05:35 29° S 10:05:35 29° S 10:14:15 10° SE visible
05 Mar 10.7 12:07:00 10° WSW 12:13:18 17° SSW 12:21:17 10° S visible
06 Mar 10.2 10:22:44 25° S 10:22:44 25° S 10:31:08 10° SSE visible
06 Mar 10.9 12:27:34 10° SW 12:31:04 12° SSW 12:34:58 10° SSW visible
07 Mar 11.1 08:38:30 11° SE 08:38:30 11° SE 08:38:47 10° SE visible
07 Mar 10.4 10:39:56 20° SSW 10:39:56 20° SSW 10:47:33 10° SSE visible
08 Mar 11.1 08:55:45 11° SE 08:55:45 11° SE 08:56:03 10° SE visible
08 Mar 10.6 10:57:11 15° SSW 10:57:11 15° SSW 11:03:11 10° S visible
